Riverbank, California, United States (95367)
Lat: 37.74N, Lon: 120.93W
Wx Zone: CAZ019
Local Info
Past Weather Observations for Tuesday, October 21, 2014

NOTE: This archive is for the closest National Weather Service station to Riverbank. Information may differ from the station used for current weather conditions.

Click here for Long-term Archive

Time Weather Temperature Dewpoint Humidity Pressure Winds Precip Visibility
23:53
Clear
57°F / 14°C 48°F / 9°C 72% 30.04 in
(1017 mb)
NNW 6.9 mph
(NNW 11 kph)
- 10SM
22:53
Clear
57°F / 14°C 46°F / 8°C 67% 30.04 in
(1017 mb)
NNW 5.8 mph
(NNW 9 kph)
- 10SM
21:53
Clear
59°F / 15°C 46°F / 8°C 63% 30.01 in
(1016 mb)
NW 6.9 mph
(NW 11 kph)
- 10SM
20:53
Clear
61°F / 16°C 46°F / 8°C 59% 30.01 in
(1016 mb)
NW 11.5 mph
(NW 19 kph)
- 10SM
19:53
Clear
63°F / 17°C 41°F / 5°C 45% 30.01 in
(1016 mb)
NW 9.2 mph
(NW 15 kph)
- 10SM
18:53
Clear
63°F / 17°C 39°F / 4°C 42% 30.01 in
(1016 mb)
NW 9.2 mph
(NW 15 kph)
- 10SM
17:53
Clear
64°F / 18°C 39°F / 4°C 40% 29.98 in
(1015 mb)
NW 9.2 mph
(NW 15 kph)
- 10SM
16:53
Clear
70°F / 21°C 37°F / 3°C 31% 29.98 in
(1015 mb)
NW 13.8 mph
(NW 22 kph)
- 10SM
15:53
Clear
72°F / 22°C 39°F / 4°C 31% 29.98 in
(1015 mb)
NW 16.1 mph
(NW 26 kph)
- 10SM
14:53
Clear
72°F / 22°C 41°F / 5°C 33% 30.01 in
(1016 mb)
NW 15 mph
(NW 24 kph)
- 10SM
13:53
Clear
72°F / 22°C 43°F / 6°C 36% 30.01 in
(1016 mb)
NW 17.3 mph
(NW 28 kph)
- 10SM
12:53
Clear
70°F / 21°C 43°F / 6°C 38% 30.01 in
(1016 mb)
NW 13.8 mph
(NW 22 kph)
- 10SM
11:53
Clear
70°F / 21°C 43°F / 6°C 38% 30.04 in
(1017 mb)
NNW 16.1 mph
(NNW 26 kph)
- 10SM
10:53
Clear
66°F / 19°C 43°F / 6°C 43% 30.06 in
(1018 mb)
NW 16.1 mph
(NW 26 kph)
- 10SM
09:53
Clear
64°F / 18°C 43°F / 6°C 46% 30.06 in
(1018 mb)
NW 15 mph
(NW 24 kph)
- 10SM
08:53
Clear
61°F / 16°C 46°F / 8°C 59% 30.09 in
(1019 mb)
NNW 11.5 mph
(NNW 19 kph)
- 10SM
07:53
Clear
57°F / 14°C 48°F / 9°C 72% 30.09 in
(1019 mb)
NW 16.1 mph
(NW 26 kph)
- 10SM
06:53
Clear
52°F / 11°C 46°F / 8°C 82% 30.06 in
(1018 mb)
NNW 4.6 mph
(NNW 7 kph)
- 10SM
05:53
Clear
52°F / 11°C 48°F / 9°C 88% 30.06 in
(1018 mb)
NNW 4.6 mph
(NNW 7 kph)
- 10SM
04:53
Clear
54°F / 12°C 48°F / 9°C 82% 30.06 in
(1018 mb)
NW 4.6 mph
(NW 7 kph)
- 10SM
03:53
Clear
54°F / 12°C 48°F / 9°C 82% 30.06 in
(1018 mb)
NW 9.2 mph
(NW 15 kph)
- 10SM
02:53
Clear
55°F / 13°C 50°F / 10°C 82% 30.06 in
(1018 mb)
NW 10.4 mph
(NW 17 kph)
- 10SM
01:53
Clear
54°F / 12°C 50°F / 10°C 88% 30.06 in
(1018 mb)
NW 5.8 mph
(NW 9 kph)
- 10SM
00:53
Clear
57°F / 14°C 52°F / 11°C 82% 30.09 in
(1019 mb)
NNW 6.9 mph
(NNW 11 kph)
- 10SM
Time Weather Temperature Dewpoint Humidity Pressure Winds Precip Visibility


Weather for websites

WeatherForYou.com, LLC is not responsible for any damages or problems caused by this service. Current weather conditions are obtained from the closest station including government and personal stations which may have varying degrees of accuracy. Weather forecasts are derived from the NOAA NDFD. Like all things, this site belongs to Jesus Christ... He just trusts me to maintain it. If you have any questions or comments email webmaster@weatherforyou.com

Copyright © 2014, WeatherForYou.com LLC. All rights reserved.